BEIDOU-3S IGSO-1S

Last updated on Tue Sep 16 2025 00:02:48 GMT+0000 (Coordinated Universal Time)

1 40549U 15019A 25257.08844315 -.00000146 00000+0 00000+0 0 9992 2 40549 49.7179 298.7880 0041392 196.1629 342.9667 1.00258147 38305
UTC large
Height (km)
Speed (km/s)
/
Latitude / Longitude
Inclination (degrees)
Orbital Period (minutes)
Azimuth
Elevation
Range (km)
Doppler Factor

Next 0 passes for location: London (51.5072 / 0.1276)

Sorry there are no passes over London.